Location: Lowman
(44.0835°N, 115.6207°W)
Time: 19:39:25
(UTC+00:00)

ISS - Visible Passes

Search period start: 08 December 2022 00:00
Search period end: 18 December 2022 00:00
Orbit: 414 x 420 km, 51.6° (Epoch: 08 December)

Date Brightness Start Highest point End Pass type
(mag) Time Alt. Az. Time Alt. Az. Time Alt. Az.
08 Dec -3.1 00:36:22 10° WNW 00:39:40 60° SW 00:42:57 10° SE visible
09 Dec -0.5 01:26:01 10° W 01:27:50 14° SW 01:29:38 10° SSW visible
10 Dec -0.9 00:37:06 10° W 00:39:48 23° SW 00:42:29 10° S visible
16 Dec -0.7 14:08:10 10° S 14:10:31 18° SE 14:12:53 10° E visible
17 Dec -0.3 13:21:34 10° SE 13:22:22 11° SE 13:23:11 10° ESE visible
